Regional Weather Roundup
Issued by NWS

Home | Current Version | Previous Version | Graphics & Text | Print | Product List | Glossary Off
Versions: 1 2 3 4 5 6 7 8 9 10 11 12 13 14 15 16 17 18 19 20 21 22 23 24 25 26 27 28 29 30 31 32 33 34 35 36 37 38 39 40 41 42 43 44 45 46 47 48 49 50

000
ASUS43 KTOP 290459
RWRKS

WEATHER ROUNDUP FOR KANSAS
NATIONAL WEATHER SERVICE GOODLAND KS
1200 AM CDT SUN MAR 29 2015

NOTE:  "FAIR" INDICATES FEW OR NO CLOUDS BELOW 12,000 FEET WITH NO
SIGNIFICANT WEATHER AND/OR OBSTRUCTIONS TO VISIBILITY.

KSZ001>006-013>018-027>032-041>047-290600-
NORTHWEST KANSAS

CITY           SKY/WX    TMP DP  RH WIND       PRES   REMARKS
GOODLAND       CLEAR     58  27  30 S16       29.86S
HAYS           CLEAR     57  39  51 S21       29.87F
HILL CITY      CLEAR     59  41  51 S17G28    29.83F
RUSSELL        CLEAR     56  42  59 S23       29.85F
$$

KSZ061>065-074>080-084>089-290600-
SOUTHWEST KANSAS

CITY           SKY/WX    TMP DP  RH WIND       PRES   REMARKS
DODGE CITY     CLEAR     60  42  51 S22G30    29.92F
ELKHART          N/A     59  30  33 S12         N/A
GARDEN CITY    CLEAR     59  43  55 SE21      29.90F
GREAT BEND     CLEAR     57  41  54 S18G24    29.91F
LIBERAL        CLEAR     59  37  44 S10       29.94S
$$

KSZ066>073-081>083-090>101-290600-
SOUTHEAST KANSAS

CITY           SKY/WX    TMP DP  RH WIND       PRES   REMARKS
CHANUTE        CLEAR     43  36  76 SE14      30.07F
COFFEYVILLE    CLEAR     46  40  79 SE6       30.07F
HUTCHINSON     CLEAR     55  40  56 MISG      29.95F
MEDICINE LODGE   N/A     56  42  59 SE12      29.96F
NEWTON         CLEAR     48  37  66 SE16      29.98F
PARSONS        CLEAR     47  39  74 E6        30.08F
WICHITA INTL   CLEAR     56  39  53 SE17      29.97F
WICHITA JABRA  CLEAR     54  40  59 SE14      29.98F
WINFIELD       CLEAR     54  41  61 SE14      30.01F
$$

KSZ007>012-019>026-033>040-048>060-102>105-290600-
NORTHEAST KANSAS

CITY           SKY/WX    TMP DP  RH WIND       PRES   REMARKS
CONCORDIA      CLEAR     49  38  65 SE20      29.89F
EMPORIA        CLEAR     43  36  76 SE13      30.02F
LAWRENCE       CLEAR     41  32  70 SE14      30.07F
MANHATTAN      CLEAR     47  37  68 SE8       29.98F
OLATHE IND     CLEAR     40  32  73 SE14      30.09F WCI  32
OLATHE EXE     CLEAR     40  32  73 SE13      30.08F WCI  32
SALINA         CLEAR     53  41  63 SE17      29.93F
TOPEKA BILLARD CLEAR     43  33  68 SE13      30.05F
TOPEKA FORBES  CLEAR     44  33  65 SE16      30.03F
$$


USA.gov is the U.S. government's official web portal to all federal, state and local government web resources and services.